Wind_Speed
51 52 54 55 56 57 57 58 60 61 62 62 63 64 64 65 66 66 66 67 67 66 67 68 68 68 68 69 69 69 69 69 68 66 67 68 68 69 69 69 70 71 72
50 51 52 53 55 56 56 57 58 59 60 61 61 62 63 64 64 65 65 66 67 67 67 68 67 68 67 68 68 67 67 68 68 66 66 67 67 68 68 69 70 71 71
49 49 50 52 53 54 55 56 57 58 59 60 61 61 62 63 64 65 65 66 66 66 66 66 66 66 66 67 67 66 66 67 67 66 65 66 67 68 69 69 70 70 71
49 50 51 52 53 54 55 55 56 57 58 59 60 60 62 63 63 63 64 65 66 65 65 64 64 65 66 66 66 66 66 67 67 67 65 65 66 67 69 69 69 69 68
51 52 52 54 55 56 56 56 57 57 58 59 60 61 62 63 63 63 64 65 64 64 63 63 64 65 65 65 65 66 66 67 66 66 65 66 65 67 68 69 69 67 66
54 54 54 55 56 56 57 58 58 58 59 59 59 60 61 61 62 63 64 64 63 62 62 64 64 64 64 64 65 66 66 66 65 65 65 65 64 66 67 67 67 66 64
56 57 57 57 57 57 58 58 59 59 59 59 59 60 59 59 60 61 62 62 62 62 62 64 64 63 64 65 65 65 64 64 64 64 64 63 63 64 65 65 64 63 61
59 59 59 59 58 58 57 57 57 58 58 59 59 59 58 58 59 61 62 62 62 61 62 62 62 62 62 62 62 62 61 61 61 62 61 61 62 62 63 62 61 60 58
60 60 60 59 58 57 57 57 57 57 57 58 58 58 58 58 60 61 62 62 61 60 60 60 60 59 59 59 59 58 58 57 58 59 59 59 59 59 59 59 58 58 55
61 60 60 59 58 57 57 57 57 57 57 57 56 57 58 58 59 60 61 61 60 60 59 58 57 57 57 57 56 55 54 55 56 56 56 56 56 56 56 56 56 56 53
60 60 59 59 58 57 57 57 57 56 55 55 55 56 57 57 58 58 58 58 57 56 56 55 54 54 54 53 53 53 53 53 53 53 53 53 53 52 52 53 53 53 51
60 59 58 58 58 57 57 56 56 55 55 55 55 55 55 55 55 55 55 55 56 55 53 52 52 51 51 51 51 51 51 51 50 50 50 49 49 49 49 49 49 48 47
59 58 58 57 57 57 56 55 54 54 54 54 54 53 52 52 52 53 54 54 54 53 52 51 50 49 48 48 48 48 48 47 47 47 46 46 47 47 46 46 45 45 44
58 57 57 56 55 54 54 54 53 53 52 52 52 52 51 51 51 51 52 52 52 51 49 48 47 46 45 45 44 45 45 45 44 44 44 44 44 44 43 43 42 42 41
57 56 55 54 53 52 52 51 51 51 51 51 50 50 49 48 49 50 50 50 49 47 46 45 44 44 43 42 42 42 42 42 42 42 42 42 42 41 40 40 40 40 40
55 54 53 52 51 50 49 49 49 49 49 49 48 48 48 47 47 48 49 48 46 45 44 43 42 41 40 40 40 40 39 39 39 39 39 39 39 38 37 37 38 39 39
54 52 51 50 49 48 48 47 45 45 46 46 46 46 47 47 47 47 47 46 44 42 41 39 38 37 37 37 37 36 36 36 36 37 37 37 36 35 35 35 36 38 38
51 50 49 47 47 46 45 44 44 43 43 43 44 45 45 45 44 44 43 42 39 38 37 36 36 35 35 34 33 32 33 33 34 34 35 34 34 33 33 33 35 36 35
48 46 46 45 44 43 42 42 42 42 42 42 42 42 42 42 41 40 39 37 36 35 34 33 33 33 32 30 29 29 30 31 32 32 32 32 31 31 32 33 33 34 32
44 43 42 41 40 39 40 41 41 41 41 40 40 39 39 38 36 35 35 34 33 32 31 31 30 29 27 26 27 27 28 29 30 30 30 30 30 30 31 31 32 30 28
40 38 37 37 37 37 38 39 39 38 37 37 37 37 36 34 33 32 32 30 30 29 29 28 27 25 25 24 25 26 27 28 28 28 28 28 28 29 30 30 29 27 25
36 34 34 35 35 35 36 36 36 35 35 35 35 34 33 31 30 29 27 27 27 27 26 25 24 23 23 23 24 25 25 26 26 27 27 27 28 29 29 28 26 23 21
33 32 33 33 33 33 33 34 34 34 34 34 33 32 30 28 27 25 25 25 25 24 24 23 22 21 21 22 23 23 23 24 25 25 26 26 27 28 27 25 22 19 18
31 31 31 31 31 32 32 33 33 33 32 32 31 29 27 26 24 24 24 24 23 22 22 21 20 20 20 21 21 21 22 23 24 25 26 26 26 25 24 21 18 17 17
30 30 30 30 31 31 32 32 31 31 30 30 29 27 25 24 23 23 22 21 20 20 20 19 19 19 19 20 20 20 22 23 24 25 25 25 24 23 20 18 16 16 16
29 29 29 30 30 30 30 30 30 29 29 29 27 25 23 22 21 20 19 18 18 18 18 19 18 18 19 19 19 21 22 23 24 24 23 23 22 20 17 16 15 16 16
Wind_Direction
289 287 286 285 285 285 285 285 285 286 286 286 287 288 288 289 289 289 290 290 290 291 292 292 292 292 293 293 293 293 293 293 292 292 293 293 293 293 294 294 294 294 294
292 290 289 287 287 287 287 287 287 287 287 288 288 289 290 290 290 291 291 290 291 291 291 291 292 292 293 293 293 293 293 293 293 293 293 293 293 293 294 294 295 295 296
297 295 292 291 290 290 289 289 289 289 289 289 289 290 291 291 291 291 291 290 291 292 291 291 292 292 292 293 293 293 292 292 293 293 293 293 293 293 294 295 295 296 297
300 298 296 294 293 292 291 291 291 291 291 290 291 291 291 291 291 291 291 292 292 292 292 292 292 292 292 293 293 293 292 292 292 293 293 293 293 294 294 295 296 297 298
303 301 298 296 295 294 292 292 292 292 292 291 291 291 291 291 291 291 291 292 293 293 292 292 292 292 293 293 292 292 292 292 292 293 293 293 294 294 295 296 297 298 299
304 303 301 299 297 295 293 293 293 293 293 293 292 292 292 292 292 292 292 293 293 293 293 293 292 292 292 292 293 292 292 292 293 293 293 294 294 295 295 297 298 299 300
305 303 302 300 299 296 295 295 294 293 293 294 294 293 293 293 294 294 294 294 294 293 293 293 293 292 292 292 292 292 292 292 293 293 294 295 295 295 296 298 299 300 302
305 304 302 301 300 298 297 296 295 295 295 295 294 294 294 294 294 294 295 295 295 294 294 294 294 293 292 292 292 292 292 293 293 294 295 295 295 296 297 298 300 301 303
305 304 302 301 300 299 298 297 297 297 297 296 295 294 294 294 295 295 296 296 296 296 295 295 295 294 293 293 293 293 294 294 293 295 296 295 296 297 298 299 300 302 303
304 304 302 301 300 299 298 298 298 298 297 297 296 296 296 296 296 296 297 297 297 297 297 297 296 294 294 293 293 293 293 293 293 294 295 295 296 298 299 300 301 302 304
303 303 302 300 300 299 299 299 298 298 298 298 298 297 297 297 298 298 298 299 299 299 299 298 296 296 295 295 294 294 294 293 294 294 294 295 296 297 298 300 301 303 305
302 301 301 300 299 299 299 299 298 298 298 298 299 299 299 299 299 299 300 300 300 300 299 298 297 296 296 295 295 295 294 294 294 294 294 295 297 298 299 300 301 303 305
301 300 300 300 300 300 299 299 299 299 299 299 300 299 300 300 300 300 301 302 302 301 300 298 298 297 297 296 296 295 295 295 294 294 295 297 298 299 300 301 302 304 305
300 300 300 300 300 300 300 300 300 300 300 301 301 300 301 301 301 302 303 303 303 302 301 299 299 298 297 297 296 296 295 295 295 296 297 299 299 300 301 302 303 304 306
300 300 300 301 301 301 301 301 301 301 301 302 302 302 302 302 302 303 304 305 304 303 302 301 300 298 297 296 295 295 295 295 296 298 299 300 300 301 302 303 305 306 308
300 301 302 302 302 303 302 302 302 302 303 303 304 304 304 304 304 305 306 305 304 303 302 302 300 298 297 296 295 295 296 297 298 299 301 302 302 303 304 305 306 308 310
302 303 303 304 304 305 305 304 304 304 305 305 305 305 305 305 304 305 306 307 305 304 303 302 301 300 298 296 295 296 296 298 299 301 303 303 304 305 306 307 308 310 312
303 304 305 305 306 306 306 306 307 307 307 307 306 305 306 306 306 306 307 308 307 306 305 303 302 302 300 298 297 298 299 300 302 304 305 305 306 307 308 309 311 313 314
306 306 306 307 307 307 308 309 310 310 310 309 308 307 307 307 307 307 309 310 308 307 306 305 304 304 303 300 298 299 301 303 305 307 307 307 308 309 310 312 314 316 316
307 308 308 308 309 310 311 312 313 313 312 312 311 310 309 308 308 308 310 311 310 309 308 307 307 307 306 303 302 303 304 306 308 309 309 310 310 311 313 314 316 318 318
309 309 309 309 310 312 313 314 315 315 315 315 315 314 313 312 311 310 311 312 312 312 311 309 308 308 308 307 307 307 308 310 311 312 312 312 313 314 315 317 318 319 320
311 311 310 311 312 313 315 317 317 317 317 318 318 318 317 316 315 313 313 314 315 315 314 313 312 311 311 311 311 311 313 314 315 315 315 315 315 317 318 318 319 321 322
312 313 313 313 314 315 317 318 319 319 319 320 320 320 320 319 318 317 317 317 317 317 318 317 316 315 314 314 315 317 318 319 319 320 319 319 319 320 320 320 320 322 325
314 314 315 315 316 316 317 319 320 321 322 322 322 321 322 321 320 319 318 319 319 320 321 321 320 319 319 320 321 322 323 323 324 324 324 323 323 323 323 324 323 323 325
314 315 316 316 317 317 317 319 321 322 323 323 322 322 321 320 319 319 319 321 322 323 324 325 325 325 325 325 326 327 328 328 328 328 328 328 328 327 327 326 324 324 325
314 315 316 317 318 318 319 320 322 323 323 323 323 322 321 321 321 321 322 324 327 328 329 330 331 331 331 331 331 331 332 332 333 333 333 333 332 332 331 329 326 325 326
Height
5681 5676 5672 5667 5662 5658 5653 5649 5644 5640 5634 5629 5624 5619 5615 5610 5604 5598 5593 5587 5582 5577 5572 5567 5562 5556 5551 5545 5539 5534 5528 5523 5519 5517 5510 5502 5495 5488 5482 5476 5470 5464 5457
5668 5663 5658 5653 5648 5643 5639 5634 5629 5624 5619 5614 5608 5603 5598 5593 5587 5582 5576 5570 5565 5560 5555 5549 5544 5538 5532 5527 5521 5515 5510 5504 5500 5497 5492 5484 5477 5469 5462 5456 5450 5443 5436
5655 5650 5644 5639 5634 5629 5624 5619 5614 5609 5603 5598 5593 5587 5582 5576 5570 5564 5558 5553 5548 5542 5537 5531 5526 5520 5514 5508 5502 5497 5491 5485 5480 5477 5473 5466 5458 5450 5442 5437 5429 5422 5414
5642 5636 5630 5625 5619 5614 5609 5604 5599 5593 5588 5582 5577 5572 5566 5559 5553 5547 5541 5536 5530 5525 5519 5514 5508 5502 5496 5490 5484 5478 5472 5466 5461 5456 5453 5447 5440 5431 5422 5416 5410 5402 5394
5629 5623 5617 5611 5605 5599 5593 5588 5583 5577 5572 5566 5561 5555 5549 5543 5536 5530 5524 5518 5513 5507 5502 5496 5490 5484 5478 5471 5465 5460 5453 5447 5442 5437 5433 5427 5421 5412 5404 5396 5389 5383 5375
5616 5609 5602 5596 5590 5584 5578 5572 5566 5561 5555 5550 5544 5538 5532 5526 5519 5512 5506 5501 5495 5490 5484 5478 5472 5465 5459 5453 5447 5441 5435 5429 5424 5418 5413 5408 5402 5393 5384 5376 5368 5362 5357
5602 5595 5588 5581 5575 5568 5562 5556 5550 5545 5539 5534 5528 5522 5516 5509 5502 5495 5489 5483 5479 5473 5466 5460 5454 5448 5441 5435 5428 5422 5416 5410 5405 5400 5395 5389 5382 5374 5365 5358 5349 5341 5335
5587 5579 5572 5565 5559 5552 5546 5540 5534 5529 5523 5517 5511 5505 5499 5493 5485 5479 5472 5466 5461 5456 5449 5442 5436 5430 5423 5416 5411 5405 5399 5393 5387 5381 5376 5371 5363 5355 5346 5339 5331 5324 5318
5571 5564 5556 5549 5543 5536 5530 5524 5518 5512 5506 5500 5494 5488 5483 5476 5468 5461 5454 5449 5443 5438 5431 5425 5418 5412 5405 5398 5393 5389 5383 5377 5369 5364 5358 5352 5345 5337 5328 5321 5314 5306 5301
5555 5547 5539 5532 5526 5520 5514 5507 5501 5495 5490 5484 5478 5471 5465 5459 5451 5444 5437 5431 5426 5420 5414 5407 5401 5394 5388 5381 5376 5372 5367 5361 5354 5348 5342 5336 5329 5321 5313 5305 5297 5290 5283
5538 5531 5523 5516 5509 5503 5497 5491 5485 5479 5473 5468 5462 5456 5449 5442 5435 5427 5420 5414 5408 5402 5396 5390 5384 5377 5371 5365 5360 5356 5351 5345 5339 5334 5328 5321 5314 5307 5300 5291 5283 5275 5268
5522 5514 5507 5500 5493 5486 5481 5475 5468 5462 5457 5451 5446 5440 5432 5425 5418 5411 5404 5397 5391 5386 5380 5374 5368 5362 5356 5350 5345 5340 5335 5329 5324 5319 5314 5308 5301 5294 5287 5279 5271 5263 5255
5505 5498 5491 5484 5477 5470 5464 5458 5452 5446 5441 5435 5429 5424 5417 5410 5403 5396 5389 5382 5375 5369 5364 5358 5352 5347 5341 5336 5330 5325 5320 5315 5310 5305 5300 5294 5288 5281 5274 5267 5260 5252 5245
5488 5481 5474 5468 5462 5455 5448 5442 5436 5430 5424 5419 5413 5408 5402 5395 5388 5382 5374 5367 5360 5354 5348 5343 5337 5332 5327 5322 5317 5311 5306 5302 5297 5292 5287 5282 5275 5269 5262 5255 5248 5241 5235
5472 5465 5459 5452 5446 5440 5434 5427 5420 5415 5408 5403 5398 5392 5386 5381 5373 5367 5360 5353 5346 5340 5334 5329 5324 5319 5314 5309 5304 5299 5294 5289 5285 5280 5275 5269 5263 5257 5251 5244 5237 5231 5224
5456 5449 5443 5437 5431 5425 5419 5414 5406 5400 5394 5388 5382 5376 5371 5365 5359 5353 5346 5339 5333 5326 5321 5316 5310 5305 5301 5296 5292 5287 5283 5278 5274 5269 5263 5258 5252 5246 5241 5234 5227 5220 5214
5440 5434 5428 5422 5416 5410 5404 5399 5394 5388 5381 5374 5368 5362 5356 5351 5345 5339 5332 5326 5320 5313 5308 5303 5298 5293 5289 5285 5280 5276 5272 5268 5263 5258 5253 5248 5242 5236 5230 5225 5218 5211 5205
5425 5420 5414 5408 5402 5397 5391 5385 5380 5374 5369 5362 5356 5349 5343 5338 5332 5326 5319 5314 5308 5302 5297 5292 5287 5282 5278 5274 5270 5266 5262 5258 5253 5249 5243 5238 5233 5227 5222 5216 5209 5203 5196
5412 5406 5400 5395 5390 5384 5379 5373 5367 5361 5355 5350 5344 5337 5331 5326 5320 5314 5309 5303 5298 5292 5287 5282 5277 5273 5268 5264 5261 5257 5253 5249 5245 5240 5235 5229 5224 5219 5213 5207 5201 5195 5188
5399 5394 5388 5383 5378 5373 5367 5362 5356 5350 5344 5338 5332 5326 5320 5315 5310 5305 5299 5294 5289 5283 5278 5274 5269 5264 5260 5256 5253 5249 5245 5241 5237 5232 5227 5222 5216 5211 5206 5200 5194 5188 5183
5388 5383 5378 5373 5368 5362 5357 5351 5345 5339 5333 5327 5321 5315 5310 5305 5300 5296 5291 5286 5281 5276 5271 5266 5262 5258 5254 5250 5246 5242 5238 5234 5229 5224 5219 5214 5209 5204 5199 5194 5188 5183 5178
5377 5372 5368 5363 5358 5353 5347 5342 5336 5330 5324 5318 5313 5307 5301 5296 5291 5287 5283 5278 5274 5269 5264 5260 5256 5252 5248 5244 5240 5236 5232 5227 5223 5218 5213 5208 5203 5198 5193 5188 5183 5178 5174
5367 5363 5359 5354 5349 5344 5339 5334 5328 5322 5316 5311 5305 5300 5295 5289 5285 5281 5276 5272 5268 5263 5259 5255 5250 5246 5242 5239 5235 5230 5226 5222 5217 5212 5207 5202 5197 5192 5187 5183 5178 5175 5171
5359 5355 5350 5346 5341 5336 5331 5326 5320 5315 5309 5304 5299 5293 5289 5284 5280 5275 5271 5267 5263 5259 5254 5250 5246 5242 5238 5234 5230 5225 5221 5217 5212 5207 5202 5197 5192 5187 5182 5178 5175 5172 5168
5351 5347 5343 5338 5334 5329 5324 5319 5314 5308 5303 5298 5293 5288 5283 5279 5275 5271 5266 5262 5259 5255 5250 5246 5242 5238 5234 5230 5226 5221 5217 5212 5207 5202 5197 5192 5187 5182 5178 5175 5172 5169 5166
5344 5340 5336 5331 5327 5322 5317 5312 5307 5302 5297 5292 5287 5282 5278 5274 5270 5266 5263 5259 5255 5252 5247 5243 5239 5235 5231 5227 5222 5218 5213 5209 5203 5198 5193 5188 5183 5179 5176 5173 5170 5167 5164